| time (UTC) | temp F | wind direction | speed MPH | gust MPH | rain 1hr in | rain 24hr in | rain mn in | humidity % | barometer mb |
| 20260504234321 | 65 | 220 | 2.0 | 2.0 | 0.00 | 0.00 | 0.00 | 48 | 1007.7 |
| 20260504233817 | 65 | 275 | 3.0 | 3.0 | 0.00 | 0.00 | 0.00 | 49 | 1007.8 |
| 20260504233313 | 65 | 166 | 2.0 | 2.0 | 0.00 | 0.00 | 0.00 | 48 | 1007.8 |
| 20260504232810 | 66 | 286 | 2.0 | 2.0 | 0.00 | 0.00 | 0.00 | 47 | 1007.8 |
| 20260504232307 | 66 | 191 | 2.0 | 3.0 | 0.00 | 0.00 | 0.00 | 47 | 1007.6 |
| 20260504231804 | 66 | 206 | 3.0 | 3.0 | 0.00 | 0.00 | 0.00 | 47 | 1007.6 |
| 20260504231300 | 66 | 195 | 3.0 | 3.0 | 0.00 | 0.00 | 0.00 | 46 | 1007.5 |
| 20260504230756 | 66 | 221 | 3.0 | 3.0 | 0.00 | 0.00 | 0.00 | 45 | 1007.4 |
| 20260504230254 | 66 | 182 | 4.0 | 5.0 | 0.00 | 0.00 | 0.00 | 47 | 1007.4 |
| 20260504225753 | 67 | 169 | 3.0 | 5.0 | 0.00 | 0.00 | 0.00 | 46 | 1007.4 |
| 20260504225249 | 67 | 264 | 1.0 | 1.0 | 0.00 | 0.00 | 0.00 | 45 | 1007.5 |
| 20260504224746 | 67 | 213 | 2.0 | 2.0 | 0.00 | 0.00 | 0.00 | 46 | 1007.4 |
| 20260504224243 | 67 | 156 | 3.0 | 3.0 | 0.00 | 0.00 | 0.00 | 45 | 1007.2 |
| 20260504223740 | 67 | 217 | 4.0 | 5.0 | 0.00 | 0.00 | 0.00 | 45 | 1007.4 |
| 20260504223235 | 67 | 202 | 3.0 | 3.0 | 0.00 | 0.00 | 0.00 | 44 | 1007.1 |
| 20260504222732 | 68 | 351 | 2.0 | 3.0 | 0.00 | 0.00 | 0.00 | 45 | 1007.5 |
| 20260504222229 | 68 | 179 | 4.0 | 6.0 | 0.00 | 0.00 | 0.00 | 45 | 1007.5 |
| 20260504221727 | 68 | 171 | 4.0 | 5.0 | 0.00 | 0.00 | 0.00 | 44 | 1007.3 |
| 20260504221224 | 68 | 182 | 4.0 | 5.0 | 0.00 | 0.00 | 0.00 | 44 | 1007.3 |
| 20260504220720 | 68 | 253 | 2.0 | 3.0 | 0.00 | 0.00 | 0.00 | 44 | 1007.3 |
| 20260504220218 | 68 | 192 | 3.0 | 3.0 | 0.00 | 0.00 | 0.00 | 44 | 1007.4 |
| 20260504215714 | 68 | 227 | 3.0 | 3.0 | 0.00 | 0.00 | 0.00 | 45 | 1007.4 |
| 20260504215212 | 68 | 183 | 4.0 | 6.0 | 0.00 | 0.00 | 0.00 | 43 | 1007.6 |
| 20260504214707 | 68 | 165 | 4.0 | 6.0 | 0.00 | 0.00 | 0.00 | 44 | 1007.5 |
| 20260504214204 | 68 | 164 | 3.0 | 3.0 | 0.00 | 0.00 | 0.00 | 44 | 1007.7 |
| 20260504213701 | 68 | 139 | 4.0 | 6.0 | 0.00 | 0.00 | 0.00 | 43 | 1007.4 |
| 20260504213157 | 68 | 268 | 4.0 | 6.0 | 0.00 | 0.00 | 0.00 | 43 | 1007.5 |
| 20260504212654 | 69 | 208 | 3.0 | 3.0 | 0.00 | 0.00 | 0.00 | 44 | 1007.6 |
| 20260504212150 | 68 | 283 | 1.0 | 2.0 | 0.00 | 0.00 | 0.00 | 44 | 1007.6 |
| 20260504211648 | 68 | 187 | 7.0 | 9.0 | 0.00 | 0.00 | 0.00 | 43 | 1007.8 |
| 20260504211144 | 67 | 250 | 3.0 | 3.0 | 0.00 | 0.00 | 0.00 | 45 | 1007.7 |
| 20260504210642 | 68 | 246 | 4.0 | 5.0 | 0.00 | 0.00 | 0.00 | 43 | 1007.7 |
| 20260504210138 | 68 | 240 | 5.0 | 6.0 | 0.00 | 0.00 | 0.00 | 43 | 1007.9 |
| 20260504205636 | 67 | 225 | 5.0 | 7.0 | 0.00 | 0.00 | 0.00 | 43 | 1008.0 |
| 20260504205133 | 68 | 236 | 4.0 | 5.0 | 0.00 | 0.00 | 0.00 | 43 | 1008.1 |
| 20260504204631 | 68 | 216 | 3.0 | 3.0 | 0.00 | 0.00 | 0.00 | 43 | 1007.8 |
| 20260504204130 | 67 | 269 | 5.0 | 8.0 | 0.00 | 0.00 | 0.00 | 44 | 1007.8 |
| 20260504203628 | 67 | 192 | 3.0 | 5.0 | 0.00 | 0.00 | 0.00 | 45 | 1008.4 |
| 20260504203125 | 68 | 188 | 13.0 | 17.0 | 0.00 | 0.00 | 0.00 | 43 | 1008.1 |
| 20260504202620 | 66 | 239 | 4.0 | 5.0 | 0.00 | 0.00 | 0.00 | 44 | 1008.2 |
| 20260504202117 | 67 | 181 | 8.0 | 13.0 | 0.00 | 0.00 | 0.00 | 43 | 1008.2 |
| 20260504201614 | 67 | 152 | 4.0 | 5.0 | 0.00 | 0.00 | 0.00 | 44 | 1008.4 |
| 20260504201112 | 67 | 233 | 7.0 | 8.0 | 0.00 | 0.00 | 0.00 | 44 | 1008.4 |
| 20260504200609 | 67 | 131 | 2.0 | 3.0 | 0.00 | 0.00 | 0.00 | 45 | 1008.4 |
| 20260504200105 | 68 | 185 | 2.0 | 5.0 | 0.00 | 0.00 | 0.00 | 42 | 1008.6 |
| 20260504195601 | 69 | 198 | 5.0 | 6.0 | 0.00 | 0.00 | 0.00 | 43 | 1008.7 |
| 20260504195057 | 69 | 203 | 8.0 | 11.0 | 0.00 | 0.00 | 0.00 | 44 | 1008.4 |
| 20260504194554 | 68 | 218 | 3.0 | 6.0 | 0.00 | 0.00 | 0.00 | 44 | 1008.4 |
| 20260504194050 | 67 | 246 | 6.0 | 7.0 | 0.00 | 0.00 | 0.00 | 44 | 1008.5 |
| 20260504193546 | 66 | 215 | 3.0 | 5.0 | 0.00 | 0.00 | 0.00 | 47 | 1008.8 |
| 20260504193045 | 66 | 266 | 3.0 | 3.0 | 0.00 | 0.00 | 0.00 | 46 | 1008.6 |
| 20260504192543 | 67 | 245 | 4.0 | 5.0 | 0.00 | 0.00 | 0.00 | 46 | 1008.7 |
| 20260504192041 | 66 | 188 | 5.0 | 7.0 | 0.00 | 0.00 | 0.00 | 44 | 1008.7 |
| 20260504191538 | 66 | 180 | 7.0 | 9.0 | 0.00 | 0.00 | 0.00 | 45 | 1009.0 |
| 20260504191034 | 67 | 207 | 4.0 | 5.0 | 0.00 | 0.00 | 0.00 | 45 | 1008.6 |
| 20260504190531 | 66 | 163 | 5.0 | 7.0 | 0.00 | 0.00 | 0.00 | 45 | 1008.6 |
| 20260504190027 | 65 | 228 | 6.0 | 7.0 | 0.00 | 0.00 | 0.00 | 45 | 1008.8 |
| 20260504185524 | 65 | 250 | 8.0 | 13.0 | 0.00 | 0.00 | 0.00 | 46 | 1008.9 |
| 20260504185021 | 66 | 237 | 6.0 | 7.0 | 0.00 | 0.00 | 0.00 | 44 | 1008.8 |
| 20260504184516 | 67 | 239 | 4.0 | 5.0 | 0.00 | 0.00 | 0.00 | 46 | 1008.9 |
| 20260504184012 | 66 | 259 | 6.0 | 8.0 | 0.00 | 0.00 | 0.00 | 43 | 1009.0 |
| 20260504183509 | 65 | 208 | 4.0 | 5.0 | 0.00 | 0.00 | 0.00 | 45 | 1009.0 |
| 20260504183008 | 64 | 238 | 5.0 | 6.0 | 0.00 | 0.00 | 0.00 | 46 | 1009.0 |
| 20260504182504 | 66 | 253 | 5.0 | 7.0 | 0.00 | 0.00 | 0.00 | 44 | 1009.0 |
| 20260504182001 | 65 | 208 | 3.0 | 7.0 | 0.00 | 0.00 | 0.00 | 45 | 1009.0 |
| 20260504181458 | 66 | 205 | 4.0 | 5.0 | 0.00 | 0.00 | 0.00 | 45 | 1009.0 |
| 20260504180956 | 68 | 209 | 6.0 | 7.0 | 0.00 | 0.00 | 0.00 | 44 | 1009.2 |
| 20260504180455 | 66 | 102 | 3.0 | 3.0 | 0.00 | 0.00 | 0.00 | 46 | 1009.2 |
| 20260504175953 | 66 | 207 | 8.0 | 13.0 | 0.00 | 0.00 | 0.00 | 43 | 1009.0 |
| 20260504175450 | 66 | 247 | 6.0 | 9.0 | 0.00 | 0.00 | 0.00 | 45 | 1009.3 |
| 20260504174947 | 65 | 151 | 5.0 | 6.0 | 0.00 | 0.00 | 0.00 | 47 | 1009.1 |
| 20260504174445 | 63 | 183 | 6.0 | 7.0 | 0.00 | 0.00 | 0.00 | 46 | 1009.5 |
| 20260504173942 | 64 | 246 | 10.0 | 11.0 | 0.00 | 0.00 | 0.00 | 46 | 1009.2 |
| 20260504173438 | 65 | 226 | 8.0 | 9.0 | 0.00 | 0.00 | 0.00 | 46 | 1009.5 |
| 20260504172936 | 66 | 198 | 3.0 | 5.0 | 0.00 | 0.00 | 0.00 | 45 | 1009.5 |
| 20260504172431 | 64 | 161 | 5.0 | 5.0 | 0.00 | 0.00 | 0.00 | 46 | 1009.2 |
| 20260504171928 | 64 | 47 | 3.0 | 5.0 | 0.00 | 0.00 | 0.00 | 46 | 1009.5 |
| 20260504171426 | 64 | 231 | 7.0 | 8.0 | 0.00 | 0.00 | 0.00 | 45 | 1009.7 |
| 20260504170923 | 64 | 237 | 4.0 | 5.0 | 0.00 | 0.00 | 0.00 | 47 | 1009.7 |
| 20260504170419 | 63 | 244 | 9.0 | 13.0 | 0.00 | 0.00 | 0.00 | 47 | 1009.7 |
| 20260504160338 | 61 | 166 | 7.0 | 8.0 | 0.00 | 0.00 | 0.00 | 47 | 1010.4 |
| 20260504150802 | 58 | 258 | 5.0 | 6.0 | 0.00 | 0.00 | 0.00 | 49 | 1011.0 |
| 20260504150259 | 59 | 254 | 4.0 | 6.0 | 0.00 | 0.00 | 0.00 | 48 | 1011.0 |
| 20260504141229 | 56 | 195 | 5.0 | 6.0 | 0.00 | 0.00 | 0.00 | 50 | 1011.3 |
| 20260504140725 | 56 | 282 | 8.0 | 10.0 | 0.00 | 0.00 | 0.00 | 50 | 1011.2 |
| 20260504140220 | 56 | 182 | 4.0 | 5.0 | 0.00 | 0.00 | 0.00 | 50 | 1011.2 |
| 20260504130649 | 52 | 180 | 4.0 | 6.0 | 0.00 | 0.00 | 0.00 | 54 | 1011.8 |
| 20260504130146 | 52 | 171 | 6.0 | 7.0 | 0.00 | 0.00 | 0.00 | 54 | 1011.8 |
| 20260504120110 | 51 | 183 | 5.0 | 6.0 | 0.00 | 0.00 | 0.00 | 56 | 1011.9 |
| 20260504110538 | 39 | 8 | 1.0 | 1.0 | 0.00 | 0.00 | 0.00 | 83 | 1011.8 |
| 20260504100454 | 35 | 2 | 1.0 | 2.0 | 0.00 | 0.00 | 0.00 | 89 | 1011.9 |
| 20260504081847 | 36 | 359 | 0.0 | 0.0 | 0.00 | 0.00 | 0.00 | 87 | 1011.9 |
| 20260504081343 | 37 | 355 | 0.0 | 0.0 | 0.00 | 0.00 | 0.00 | 87 | 1012.0 |
| 20260504080839 | 37 | 352 | 0.0 | 0.0 | 0.00 | 0.00 | 0.00 | 86 | 1011.8 |
| 20260504080337 | 37 | 348 | 0.0 | 1.0 | 0.00 | 0.00 | 0.00 | 86 | 1011.9 |
| 20260504070304 | 42 | 223 | 3.0 | 3.0 | 0.00 | 0.00 | 0.00 | 70 | 1011.7 |
| 20260504060224 | 40 | 187 | 3.0 | 3.0 | 0.00 | 0.00 | 0.00 | 75 | 1011.5 |
| 20260504050652 | 37 | 13 | 1.0 | 1.0 | 0.00 | 0.00 | 0.00 | 85 | 1011.6 |
| 20260504050149 | 36 | 14 | 1.0 | 1.0 | 0.00 | 0.00 | 0.00 | 88 | 1011.5 |
| 20260504045646 | 36 | 10 | 1.0 | 1.0 | 0.00 | 0.00 | 0.00 | 89 | 1011.3 |
| 20260504045146 | 36 | 0 | 1.0 | 2.0 | 0.00 | 0.00 | 0.00 | 88 | 1011.2 |
| 20260504044644 | 36 | 6 | 1.0 | 1.0 | 0.00 | 0.00 | 0.00 | 89 | 1011.5 |
| 20260504044141 | 36 | 25 | 1.0 | 1.0 | 0.00 | 0.00 | 0.00 | 89 | 1011.6 |
| 20260504043638 | 36 | 11 | 1.0 | 2.0 | 0.00 | 0.00 | 0.00 | 90 | 1011.5 |
| 20260504043135 | 36 | 356 | 1.0 | 1.0 | 0.00 | 0.00 | 0.00 | 89 | 1011.4 |
| 20260504042632 | 37 | 13 | 0.0 | 0.0 | 0.00 | 0.00 | 0.00 | 88 | 1011.5 |
| 20260504042129 | 37 | 7 | 1.0 | 1.0 | 0.00 | 0.00 | 0.00 | 86 | 1011.4 |
| 20260504041625 | 37 | 14 | 0.0 | 1.0 | 0.00 | 0.00 | 0.00 | 86 | 1011.6 |
| 20260504041121 | 37 | 9 | 2.0 | 2.0 | 0.00 | 0.00 | 0.00 | 86 | 1011.5 |
| 20260504040618 | 37 | 10 | 1.0 | 1.0 | 0.00 | 0.00 | 0.00 | 87 | 1011.4 |
| 20260504040115 | 37 | 8 | 0.0 | 1.0 | 0.00 | 0.00 | 0.00 | 88 | 1011.5 |
| 20260504035612 | 37 | 3 | 0.0 | 1.0 | 0.00 | 0.00 | 0.00 | 87 | 1011.5 |
| 20260504035108 | 38 | 10 | 0.0 | 1.0 | 0.00 | 0.00 | 0.00 | 86 | 1011.8 |
| 20260504034606 | 38 | 7 | 0.0 | 1.0 | 0.00 | 0.00 | 0.00 | 85 | 1011.5 |
| 20260504034103 | 38 | 13 | 0.0 | 1.0 | 0.00 | 0.00 | 0.00 | 85 | 1011.6 |
| 20260504033601 | 38 | 15 | 1.0 | 1.0 | 0.00 | 0.00 | 0.00 | 87 | 1011.5 |
| 20260504033058 | 38 | 12 | 1.0 | 2.0 | 0.00 | 0.00 | 0.00 | 85 | 1011.6 |
| 20260504032555 | 39 | 2 | 0.0 | 0.0 | 0.00 | 0.00 | 0.00 | 87 | 1011.5 |
| 20260504032052 | 40 | 14 | 1.0 | 1.0 | 0.00 | 0.00 | 0.00 | 85 | 1011.6 |
| 20260504031549 | 40 | 8 | 1.0 | 1.0 | 0.00 | 0.00 | 0.00 | 81 | 1011.5 |
| 20260504031045 | 41 | 22 | 1.0 | 1.0 | 0.00 | 0.00 | 0.00 | 83 | 1011.5 |
| 20260504030542 | 40 | 32 | 1.0 | 2.0 | 0.00 | 0.00 | 0.00 | 83 | 1011.5 |
| 20260504030038 | 40 | 24 | 1.0 | 1.0 | 0.00 | 0.00 | 0.00 | 85 | 1011.4 |
| 20260504025536 | 40 | 10 | 1.0 | 2.0 | 0.00 | 0.00 | 0.00 | 86 | 1011.3 |
| 20260504025032 | 40 | 354 | 0.0 | 0.0 | 0.00 | 0.00 | 0.00 | 84 | 1011.2 |
| 20260504024529 | 40 | 354 | 0.0 | 0.0 | 0.00 | 0.00 | 0.00 | 83 | 1011.5 |
| 20260504024026 | 40 | 354 | 0.0 | 0.0 | 0.00 | 0.00 | 0.00 | 83 | 1011.5 |
| 20260504023523 | 40 | 354 | 0.0 | 0.0 | 0.00 | 0.00 | 0.00 | 82 | 1011.4 |
| 20260504023018 | 40 | 354 | 0.0 | 0.0 | 0.00 | 0.00 | 0.00 | 82 | 1011.5 |
| 20260504022514 | 40 | 354 | 0.0 | 0.0 | 0.00 | 0.00 | 0.00 | 82 | 1011.4 |
| 20260504022011 | 41 | 359 | 0.0 | 0.0 | 0.00 | 0.00 | 0.00 | 83 | 1011.3 |
| 20260504021509 | 41 | 356 | 0.0 | 0.0 | 0.00 | 0.00 | 0.00 | 84 | 1011.4 |
| 20260504021006 | 41 | 356 | 0.0 | 0.0 | 0.00 | 0.00 | 0.00 | 81 | 1011.3 |
| 20260504020502 | 41 | 357 | 0.0 | 0.0 | 0.00 | 0.00 | 0.00 | 81 | 1011.3 |
| 20260504015959 | 41 | 1 | 0.0 | 0.0 | 0.00 | 0.00 | 0.00 | 81 | 1011.5 |
| 20260504015455 | 41 | 1 | 0.0 | 0.0 | 0.00 | 0.00 | 0.00 | 80 | 1011.4 |
| 20260504014951 | 41 | 4 | 0.0 | 0.0 | 0.00 | 0.00 | 0.00 | 80 | 1011.3 |
| 20260504014447 | 40 | 4 | 0.0 | 0.0 | 0.00 | 0.00 | 0.00 | 80 | 1011.3 |
| 20260504013944 | 40 | 4 | 0.0 | 0.0 | 0.00 | 0.00 | 0.00 | 81 | 1011.2 |
| 20260504013443 | 40 | 4 | 0.0 | 0.0 | 0.00 | 0.00 | 0.00 | 81 | 1011.1 |
| 20260504012938 | 41 | 4 | 0.0 | 0.0 | 0.00 | 0.00 | 0.00 | 79 | 1011.2 |
| 20260504012437 | 41 | 4 | 0.0 | 0.0 | 0.00 | 0.00 | 0.00 | 77 | 1011.1 |
| 20260504011934 | 41 | 4 | 0.0 | 0.0 | 0.00 | 0.00 | 0.00 | 77 | 1011.2 |
| 20260504011430 | 41 | 4 | 0.0 | 0.0 | 0.00 | 0.00 | 0.00 | 78 | 1011.1 |
| 20260504010926 | 41 | 3 | 0.0 | 0.0 | 0.00 | 0.00 | 0.00 | 77 | 1011.0 |
| 20260504010422 | 42 | 3 | 1.0 | 1.0 | 0.00 | 0.00 | 0.00 | 76 | 1011.1 |
| 20260504005919 | 42 | 3 | 1.0 | 1.0 | 0.00 | 0.00 | 0.00 | 76 | 1011.1 |
| 20260504005415 | 42 | 1 | 1.0 | 1.0 | 0.00 | 0.00 | 0.00 | 77 | 1011.0 |
| 20260504004913 | 43 | 4 | 0.0 | 0.0 | 0.00 | 0.00 | 0.00 | 74 | 1011.1 |
| 20260504004411 | 43 | 8 | 1.0 | 1.0 | 0.00 | 0.00 | 0.00 | 73 | 1011.0 |
| 20260504003908 | 43 | 12 | 1.0 | 1.0 | 0.00 | 0.00 | 0.00 | 73 | 1011.1 |
| 20260504003404 | 44 | 351 | 1.0 | 1.0 | 0.00 | 0.00 | 0.00 | 72 | 1011.0 |
| 20260504002901 | 45 | 347 | 0.0 | 1.0 | 0.00 | 0.00 | 0.00 | 72 | 1011.0 |
| 20260504002358 | 45 | 6 | 0.0 | 0.0 | 0.00 | 0.00 | 0.00 | 68 | 1010.8 |
| 20260504001855 | 46 | 359 | 0.0 | 1.0 | 0.00 | 0.00 | 0.00 | 66 | 1010.7 |
| 20260504001352 | 46 | 356 | 0.0 | 0.0 | 0.00 | 0.00 | 0.00 | 65 | 1010.8 |
| 20260504000849 | 47 | 0 | 0.0 | 0.0 | 0.00 | 0.00 | 0.00 | 64 | 1010.6 |
| 20260504000346 | 48 | 2 | 0.0 | 0.0 | 0.00 | 0.00 | 0.00 | 60 | 1010.8 |
| 20260503235844 | 49 | 355 | 0.0 | 0.0 | 0.00 | 0.00 | 0.00 | 61 | 1010.3 |
| 20260503235341 | 49 | 358 | 0.0 | 0.0 | 0.00 | 0.00 | 0.00 | 58 | 1010.6 |
| 20260503234838 | 50 | 350 | 0.0 | 0.0 | 0.00 | 0.00 | 0.00 | 60 | 1010.1 |